User: anonymous   Login
Location: Unspecified
(0.0000°N, 0.0000°E)
Time: 10:41:38
(UTC+01:00)
Language:

Cosmos 1703 Rocket - Orbit

View from above orbital plane
View from above orbital plane
View from above satellite
View from above satellite

Ground track
Ground track

The orbit data is extracted from the following two-line orbital elements,

1 16263U 85108B   14325.87556983  .00000606  00000-0  72264-4 0  8251
2 16263 082.5047 274.3606 0020252 193.1490 226.6946 14.82551872565332
Epoch (UTC): 21 November 2014 21:00:49
Eccentricity: 0.0020252
inclination: 82.5047°
perigee height: 607 km
apogee height: 635 km
right ascension of ascending node: 274.3606°
argument of perigee: 193.1490°
revolutions per day: 14.82551872
mean anomaly at epoch: 226.6946°
orbit number at epoch: 56533

The dashed part of the orbit path shows where the satellite is in the earth's shadow,  

DLR